Погода в Аргосе

Греция     37°38′05″N   22°43′58″E
темп.,
°C
ветер,
м/с
пор.,
м/с
влажн.,
%
обл.,
%
осадки,
мм/ч
давл.,
гПа
погр.,
м
20 сентября, пн
пн2000:00+23зсз22370 0.0 101520
03:00+22зсз22410 0.0 101423
06:00+21зсз11420 0.0 101417
09:00+25зюз12340 0.0 1014156
12:00+33ююз27190 0.0 10131886
15:00+36з612160 0.0 10113126
18:00+33з711200 0.0 10111940
21:00+25з014217 0.0 101315
21 сентября, вт
вт2100:00+23зсз115035 0.0 101420
03:00+21з225815 0.0 101424
06:00+20ссз115924 0.0 101419
09:00+24с224579 0.0 1016189
12:00+29ссв322998 0.0 1016980
15:00+31всв332670 0.0 10151354
18:00+28ю343362 0.0 1015550
21:00+22св116092 0.0 101611
22 сентября, ср
ср2200:00+21с11620 0.0 101711
03:00+19с11750 0.0 101713
06:00+18с22853 0.0 101622
09:00+20с236813 0.0 1017414
12:00+25ссв124752 0.0 10151434
15:00+27св343918 0.0 10131692
18:00+24ю445314 0.4 1012798
21:00+19ююз22790 1.4 101264
23 сентября, чт
чт2300:00+18ююз11773 0.0 101111
03:00+17с22799 0.0 101139
06:00+14с587394 0.1 1014686
09:00+14ссв356464 0.1 1016795
12:00+15св2457100 0.0 1018975
15:00+17ссв225145 0.0 10171035
18:00+18всв224368 0.0 10171267
21:00+16всв224829 0.0 1018107
24 сентября, пт
пт2400:00+13с11600 0.0 102011
03:00+12ссз11650 0.0 102011
06:00+11сз11670 0.0 102011
09:00+15сз11515 0.0 1020180
12:00+21св11295 0.0 10201157
15:00+24в22230 0.0 10181484
18:00+23юв11290 0.0 1017652
21:00+15ююз11611 0.0 101923